• MPC Preparation (Info)

  • MPEC 2022-F102 : 2022 FY2

    The following Minor Planet Electronic Circular may be linked-to from your own Web pages, but must not otherwise be redistributed electronically.

    A form allowing access to any MPEC is at the bottom of this page.


    Read MPEC 2022-F101 Read MPEC 2022-F103


    M.P.E.C. 2022-F102                               Issued 2022 March 28, 00:30 UT
    
         The Minor Planet Electronic Circulars contain information on unusual
             minor planets and routine data on comets.  They are published
        on behalf of Division F of the International Astronomical Union by the
              Minor Planet Center, Smithsonian Astrophysical Observatory,
                              Cambridge, MA 02138, U.S.A.
    
                 Prepared using the Tamkin Foundation Computer Network
    
                                  MPC@CFA.HARVARD.EDU
                URL https://www.minorplanetcenter.net/    ISSN 1523-6714
    
                                    2022 FY2                                 
    
    
    Observations:
         K22F02Y  C2022 02 23.54203611 08 09.871-04 54 21.13         22.34GVEF102F52
         K22F02Y  C2022 03 03.56821210 57 30.509+01 07 17.59         22.33GVEF102F52
         K22F02Y  C2022 03 03.56901610 57 30.405+01 07 20.57         22.90GVEF102F52
         K22F02Y  C2022 03 05.36311210 54 11.064+03 02 39.78         21.91GVEF102F52
         K22F02Y  C2022 03 05.37462710 54 09.468+03 03 27.21         21.79GVEF102F52
         K22F02Y  C2022 03 05.38609410 54 07.877+03 04 14.67         21.87GVEF102F52
         K22F02Y  C2022 03 05.39184710 54 07.092+03 04 38.87         22.01GVEF102F52
         K22F02Y* C2022 03 25.17760209 14 26.00 +47 47 45.9          21.09GVEF102G96
         K22F02Y  C2022 03 25.18486609 14 20.63 +47 49 07.2          21.21GVEF102G96
         K22F02Y  C2022 03 25.19188309 14 15.21 +47 50 27.6          21.42GVEF102G96
         K22F02Y  C2022 03 25.19792809 14 10.58 +47 51 36.1          20.88GVEF102G96
         K22F02Y KC2022 03 25.26592809 13 18.68 +48 04 19.0          21.40GVEF102I52
         K22F02Y KC2022 03 25.26760609 13 17.37 +48 04 37.6          20.52GVEF102I52
         K22F02Y KC2022 03 25.26928509 13 16.08 +48 04 56.5          21.00GVEF102I52
         K22F02Y KC2022 03 27.16213608 47 32.41 +53 53 55.1                VEF102I52
         K22F02Y KC2022 03 27.16688308 47 27.63 +53 54 46.7          21.56GVEF102I52
         K22F02Y KC2022 03 27.17163008 47 22.96 +53 55 37.2          21.42GVEF102I52
         K22F02Y 1C2022 03 27.87137 08 36 01.63 +55 57 34.1          20.7 VXEF102033
         K22F02Y 1C2022 03 27.87258 08 36 00.37 +55 57 46.5          21.0 VXEF102033
         K22F02Y 1C2022 03 27.87379 08 35 59.10 +55 57 58.7          20.7 VXEF102033
         K22F02Y 1C2022 03 27.87500 08 35 57.79 +55 58 11.1          20.6 VXEF102033
         K22F02Y KC2022 03 27.95250908 34 36.33 +56 11 29.0          20.8 GXEF102I93
         K22F02Y KC2022 03 27.97879108 34 08.18 +56 15 52.4          20.5 GXEF102I93
    
    Observer details:
    033 Karl Schwarzschild Observatory, Tautenburg.  Observers S. Melnikov, C.
        Hoegner, U. Laux, F. Ludwig, B. Stecklum.  Measurer B. Stecklum.  1.34-m
        f/3 Schmidt + CCD.
    F52 Pan-STARRS 2, Haleakala.  Observers J. Bulger, K. Chambers, T. Dukes, T.
        Lowe, A. Schultz, I. Smith.  Measurers S. Chastel, M. Huber, Y.
        Ramanjooloo, R. Wainscoat, R. Weryk.  1.8-m Ritchey-Chretien + CCD.
    G96 Mt. Lemmon Survey.  Observer G. J. Leonard.  Measurers E. J. Christensen,
        G. A. Farneth, J. B. Fazekas, D. C. Fuls, A. R. Gibbs, A. D. Grauer, H.
        Groeller, J. K. Hogan, R. A. Kowalski, S. M. Larson, G. J. Leonard, D.
        Rankin, R. L. Seaman, A. Serrano, F. C. Shelly, K. W. Wierzchos.  1.5-m
        reflector + 10K CCD.
    I52 Steward Observatory, Mt. Lemmon Station.  Observers K. W. Wierzchos, H.
        Groeller.  Measurers E. J. Christensen, G. A. Farneth, J. B. Fazekas, D.
        C. Fuls, A. R. Gibbs, A. D. Grauer, H. Groeller, J. K. Hogan, R. A.
        Kowalski, S. M. Larson, G. J. Leonard, D. Rankin, R. L. Seaman, A.
        Serrano, F. C. Shelly, K. W. Wierzchos.
    I93 St Pardon de Conques.  Observer F. Losse.  0.40-m f/3.7 reflector + CCD.
    
    Orbital elements:
    2022 FY2                                                 Earth MOID = 0.0346 AU
    Epoch 2022 Jan. 21.0 TT = JDT 2459600.5                 Veres                   
    M 262.89315              (2000.0)            P               Q                  
    n   0.75016844     Peri.  105.52416     +0.04877657     +0.99778102             
    a   1.1995827      Node   167.01641     -0.97618385     +0.05722558             
    e   0.3749140      Incl.   11.63731     -0.21139047     -0.03403349             
    P   1.31           H   24.42          G   0.15           U   7                  
    Residuals in seconds of arc
    220223 F52  0.1+  0.0     220325 G96  1.2+  1.0-    220327 I52  0.1-  0.1+
    220303 F52  0.0   0.2-    220325 G96  0.4+  0.1-    220327 033  0.2+  0.1-
    220303 F52  0.1-  0.1-    220325 G96  0.2+  0.1+    220327 033  0.3+  0.0
    220305 F52  0.0   0.0     220325 I52  0.0   0.0     220327 033  0.4+  0.1-
    220305 F52  0.0   0.0     220325 I52  0.3-  0.2-    220327 033  0.2+  0.1-
    220305 F52  0.0   0.1+    220325 I52  0.3-  0.1+    220327 I93  1.1+  0.1+
    220305 F52  0.3+  0.5+    220327 I52 (1.2+  0.6-)   220327 I93  0.1+  0.7+
    220325 G96  0.4-  0.1+    220327 I52  0.0   0.3+
    
    Ephemeris:
    2022 FY2                 a,e,i = 1.20, 0.37, 12                  q = 0.7498
    Date    TT    R. A. (2000) Decl.     Delta      r    Elong.  Phase     V
    2022 02 26    11 05 36.3 -03 25 54   0.2279  1.2119   165.5    11.8    22.3
    ...
    2022 03 13    10 33 45.1 +14 41 15   0.1337  1.1215   161.8    16.1    21.2
    ...
    2022 03 21    09 53 18.8 +34 44 12   0.1042  1.0714   134.3    41.7    21.3
    ...
    2022 03 27    08 50 01.3 +53 24 14   0.09710 1.0333   109.0    65.9    21.8
    2022 03 28    08 33 52.9 +56 19 20   0.09732 1.0270   104.7    70.0    21.9
    2022 03 29    08 15 24.9 +59 03 33   0.09792 1.0206   100.5    74.1    22.0
    ...
    2022 04 04    05 30 50.2 +68 51 48   0.1088  0.9826    77.7    96.1    23.0
    ...
    2022 04 12    02 19 00.2 +63 43 41   0.1372  0.9329    56.2   116.7    24.6
    ...
    2022 04 27    00 48 01.5 +46 59 53   0.2155  0.8473    38.1   132.9    26.7
    
    M. P. C. Staff               (C) Copyright 2022 MPC           M.P.E.C. 2022-F102
    


    Read MPEC 2022-F101 Read MPEC 2022-F103


    MPEC number:

    Enter an MPEC number in one of the following forms:

    • 1997-B01 (the full form)
    • J97B01 (the packed version of the full form)
    • B01 (the abbreviated form)